Flag for Germany Weather past 2 weeks in Waren (Müritz), Mecklenburg-Western Pomerania, Germany

Now
61 °F

Partly sunny.


Feels Like: 61 °F
Forecast: 54 / 72 °F
Wind: 12 mph from West

Location: Laage

Current Time: Aug 28, 2015 at 12:02:29 PM

Latest Report: Aug 28, 2015 at 11:20 AM


Visibility: N/A

Pressure: 29.98 "Hg

Humidity: 83%

Dew point: 55 °F

Location of Waren (Müritz)Location

Historic Weather in Waren (Müritz) — Graph

°F

Waren (Müritz) temperature yesterday

Maximum temperature yesterday: 70 °F (at 12:20 AM)
Minimum temperature yesterday: 59 °F (at 8:01 PM)
Average temperature yesterday: 64 °F

Past Weeks' High & Low Weather Summary

 TemperatureHumidityPressure
High86 °F (Aug 14, 3:20 PM)100% (Aug 16, 5:20 AM)30.30 "Hg (Aug 16, 5:20 AM)
Low50 °F (Aug 20, 6:20 AM)23% (Aug 21, 3:20 PM)29.68 "Hg (Aug 15, 4:20 AM)
Average67 °F70%29.96 "Hg
* Reported Aug 13 10:20 AM — Aug 28 10:20 AM, Waren (Müritz), Weather by CustomWeather, © 2015

Note: Actual official high and low records may vary slightly from our data, if they occured in-between our weather recording intervals... More about our weather records

Advertising

Waren (Müritz) weather history for previous 24 hours

 ConditionsComfort  
Time TempWeatherWind HumidityBarometerVisibility
10:20 AM
Fri, Aug 28
61 °FPartly sunny.8 mph83%29.98 "HgN/A
9:20 AM61 °FPartly sunny.10 mph83%29.95 "HgN/A
8:20 AM59 °FPassing clouds.7 mph88%29.92 "HgN/A
7:20 AM57 °FPartly sunny.5 mph94%29.92 "Hg6 mi
6:20 AM57 °FPartly cloudy.9 mph94%29.89 "HgN/A
5:20 AM57 °FPassing clouds.7 mph94%29.86 "HgN/A
4:50 AM57 °FPassing clouds.8 mph94%29.86 "HgN/A
4:20 AM57 °FPassing clouds.7 mph94%29.86 "HgN/A
3:20 AM57 °FPassing clouds.5 mph94%29.83 "HgN/A
2:20 AM57 °FRain. Passing clouds.7 mph100%29.83 "HgN/A
1:20 AM57 °FRain. Passing clouds.5 mph100%29.83 "Hg4 mi
12:20 AM59 °FRain. Passing clouds.5 mph100%29.83 "Hg4 mi
11:20 PM
Thu, Aug 27
59 °FRain. Passing clouds.6 mph100%29.83 "Hg4 mi
10:59 PM59 °FRain. Passing clouds.6 mph100%29.83 "Hg4 mi
10:20 PM59 °FRain. Passing clouds.2 mph100%29.83 "Hg4 mi
9:20 PM59 °FLight rain. Passing clouds.2 mph94%29.83 "Hg4 mi
8:20 PM59 °FRain. Fog.6 mph100%29.83 "Hg3 mi
8:01 PM59 °FRain. Fog.7 mph100%29.83 "Hg2 mi
7:20 PM61 °FRain. Fog.5 mph94%29.83 "Hg2 mi
6:20 PM63 °FLight rain. Fog.7 mph88%29.83 "Hg3 mi
5:20 PM64 °FLight rain. Broken clouds.6 mph94%29.83 "HgN/A
4:20 PM66 °FLight rain. Partly sunny.6 mph88%29.83 "HgN/A
3:20 PM68 °FLight rain. Partly sunny.8 mph78%29.83 "HgN/A
2:20 PM70 °FBroken clouds.10 mph73%29.83 "HgN/A
1:20 PM68 °FLight rain. Overcast.12 mph78%29.83 "HgN/A
12:20 PM68 °FLight rain. Overcast.7 mph78%29.83 "HgN/A
Weather by CustomWeather, © 2015

See weather overviewHow to use our weather pages